Weather History for KFMH - January, 2013

Change the Weather History Date:

Sunday, January 20, 2013

  Actual Average Record
Temperature  
Mean Temperature 40 °F -  
Max Temperature 50 °F 32 °F 50 °F (2006)
Min Temperature 28 °F 16 °F 6 °F (2000)
Degree Days  
Heating Degree Days 25    
Moisture  
Dew Point 32 °F    
Average Humidity 63    
Maximum Humidity 93    
Minimum Humidity 39    
Precipitation  
Precipitation 0.00 in - - ()
Sea Level Pressure  
Sea Level Pressure 29.77 in    
Wind  
Wind Speed 20 mph (WSW)    
Max Wind Speed 31 mph    
Max Gust Speed 41 mph    
Visibility 10 miles    
Events      
Averages and records for this station are not official NWS values.
T = Trace of Precipitation, MM = Missing Value Source: NWS Daily Summary

Daily Weather History Graph

Daily Weather History Graph

Search for Another Location

Airport or City:

Trip Planner

Search our weather history database for the weather conditions in past years. The results will help you decide how hot, cold, wet, or windy it might be!

Date:

Astronomy

Jan. 20, 2013 Rise Set
Actual Time 7:03 AM EST 4:43 PM EST
Civil Twilight 6:33 AM EST 5:13 PM EST
Nautical Twilight 5:59 AM EST 5:47 PM EST
Astronomical Twilight 5:26 AM EST 6:20 PM EST
Moon 11:42 AM EST (1/20) 1:32 AM EST (1/20)
Length of Visible Light 10h 39m
Length of Day
9h 39m
Waxing Gibbous, 66% of the Moon is Illuminated
Jan 20
Waxing Gibbous
Jan 26
Full
Feb 3
Last Quarter
Feb 10
New
Feb 17
First Quarter

Hourly Weather History & Observations

Time (EST) Temp. Windchill Dew Point Humidity Pressure Visibility Wind Dir Wind Speed Gust Speed Precip Events Conditions
12:15 AM 46.4 °F 38.5 °F 42.8 °F 87% 29.95 in 10.0 mi SW 21.9 mph 31.1 mph N/A   Unknown
12:35 AM 46.4 °F 38.7 °F 42.8 °F 87% 29.94 in 10.0 mi SW 20.7 mph 34.5 mph N/A   Unknown
12:55 AM 46.4 °F 39.5 °F 44.6 °F 93% 29.93 in 10.0 mi SW 17.3 mph 32.2 mph N/A   Unknown
1:15 AM 46.4 °F 38.7 °F 44.6 °F 93% 29.92 in 10.0 mi SW 20.7 mph 27.6 mph N/A   Unknown
1:35 AM 48.2 °F - 44.6 °F 87% 29.93 in 10.0 mi SW 20.7 mph 28.8 mph N/A   Unknown
1:55 AM 46.4 °F 38.5 °F 44.6 °F 93% 29.91 in 10.0 mi SW 21.9 mph 27.6 mph N/A   Unknown
2:15 AM 46.4 °F 38.7 °F 42.8 °F 87% 29.91 in 10.0 mi SW 20.7 mph 26.5 mph N/A   Unknown
2:35 AM 46.4 °F 39.0 °F 41.0 °F 81% 29.89 in 10.0 mi SW 19.6 mph 29.9 mph N/A   Unknown
2:55 AM 46.4 °F 38.3 °F 41.0 °F 81% 29.87 in 10.0 mi SW 23.0 mph 29.9 mph N/A   Unknown
3:15 AM 46.4 °F 39.5 °F 39.2 °F 76% 29.86 in 10.0 mi SW 17.3 mph 25.3 mph N/A   Unknown
3:35 AM 46.4 °F 39.8 °F 39.2 °F 76% 29.85 in 10.0 mi SW 16.1 mph 29.9 mph N/A   Unknown
3:55 AM 46.4 °F 38.7 °F 37.4 °F 71% 29.83 in 10.0 mi SW 20.7 mph 33.4 mph N/A   Unknown
4:15 AM 46.4 °F 38.7 °F 37.4 °F 71% 29.83 in 10.0 mi SW 20.7 mph 32.2 mph N/A   Unknown
4:35 AM 46.4 °F 39.8 °F 37.4 °F 71% 29.82 in 10.0 mi SW 16.1 mph 27.6 mph N/A   Unknown
4:55 AM 46.4 °F 38.3 °F 37.4 °F 71% 29.80 in 10.0 mi SW 23.0 mph 29.9 mph N/A   Unknown
5:15 AM 46.4 °F 38.7 °F 39.2 °F 76% 29.80 in 10.0 mi SW 20.7 mph 32.2 mph N/A   Unknown
5:35 AM 46.4 °F 38.5 °F 37.4 °F 71% 29.79 in 10.0 mi SW 21.9 mph 33.4 mph N/A   Unknown
5:55 AM 46.4 °F 38.3 °F 37.4 °F 71% 29.78 in 10.0 mi SW 23.0 mph 31.1 mph N/A   Unknown
6:15 AM - - - N/A% 29.77 in - SW 18.4 mph 26.5 mph N/A   Unknown
6:35 AM 44.6 °F 36.1 °F 37.4 °F 76% 29.76 in 10.0 mi SW 21.9 mph 27.6 mph N/A   Unknown
6:55 AM 44.6 °F 36.9 °F 37.4 °F 76% 29.75 in 10.0 mi SW 18.4 mph 27.6 mph N/A   Unknown
7:15 AM 44.6 °F 36.4 °F 37.4 °F 76% 29.74 in 10.0 mi SW 20.7 mph 28.8 mph N/A   Unknown
7:35 AM 46.4 °F 39.2 °F 37.4 °F 71% 29.74 in 10.0 mi SW 18.4 mph 26.5 mph N/A   Unknown
7:55 AM 46.4 °F 39.2 °F 37.4 °F 71% 29.73 in 10.0 mi SW 18.4 mph 32.2 mph N/A   Unknown
8:15 AM 46.4 °F 38.7 °F 37.4 °F 71% 29.73 in 10.0 mi SW 20.7 mph 31.1 mph N/A   Unknown
8:35 AM 48.2 °F - 37.4 °F 66% 29.74 in 10.0 mi SW 19.6 mph 29.9 mph N/A   Unknown
8:55 AM 48.2 °F - 37.4 °F 66% 29.73 in 10.0 mi SW 23.0 mph 34.5 mph N/A   Unknown
9:15 AM 48.2 °F - 37.4 °F 66% 29.72 in 10.0 mi SW 28.8 mph 35.7 mph N/A   Unknown
9:35 AM 50.0 °F - 37.4 °F 62% 29.71 in 10.0 mi SW 24.2 mph 36.8 mph N/A   Unknown
9:55 AM 50.0 °F - 37.4 °F 62% 29.71 in 10.0 mi SW 23.0 mph 41.4 mph N/A   Unknown
10:15 AM 50.0 °F - 37.4 °F 62% 29.71 in 10.0 mi WSW 24.2 mph 34.5 mph N/A   Unknown
10:35 AM 50.0 °F - 37.4 °F 62% 29.70 in 10.0 mi SW 31.1 mph 39.1 mph N/A   Unknown
10:55 AM 50.0 °F - 37.4 °F 62% 29.69 in 10.0 mi WSW 25.3 mph 36.8 mph N/A   Unknown
11:15 AM 50.0 °F - 37.4 °F 62% 29.67 in 10.0 mi WSW 25.3 mph 33.4 mph N/A   Unknown
11:35 AM 50.0 °F - 37.4 °F 62% 29.65 in 10.0 mi SW 27.6 mph 35.7 mph N/A   Unknown
11:55 AM 50.0 °F - 37.4 °F 62% 29.64 in 10.0 mi WSW 24.2 mph 38.0 mph N/A   Unknown
12:15 PM 50.0 °F - 37.4 °F 62% 29.63 in 10.0 mi WSW 25.3 mph 36.8 mph N/A   Unknown
12:35 PM 50.0 °F - 37.4 °F 62% 29.62 in 10.0 mi WSW 27.6 mph 38.0 mph N/A   Unknown
12:55 PM 48.2 °F - 37.4 °F 66% 29.61 in 10.0 mi SW 27.6 mph 35.7 mph N/A   Unknown
1:15 PM 48.2 °F - 37.4 °F 66% 29.61 in 10.0 mi WSW 28.8 mph 38.0 mph N/A   Unknown
1:35 PM 48.2 °F - 35.6 °F 62% 29.61 in 10.0 mi WSW 28.8 mph 36.8 mph N/A   Unknown
1:55 PM 48.2 °F - 35.6 °F 62% 29.61 in 10.0 mi WSW 25.3 mph 39.1 mph N/A   Unknown
2:15 PM 50.0 °F - 32.0 °F 50% 29.61 in 10.0 mi WSW 29.9 mph 38.0 mph N/A   Unknown
2:35 PM 50.0 °F - 32.0 °F 50% 29.62 in 10.0 mi WSW 27.6 mph 39.1 mph N/A   Unknown
2:55 PM 48.2 °F - 32.0 °F 54% 29.63 in 10.0 mi WSW 27.6 mph 36.8 mph N/A   Unknown
3:15 PM 48.2 °F - 32.0 °F 54% 29.63 in 10.0 mi WSW 27.6 mph 35.7 mph N/A   Unknown
3:35 PM 48.2 °F - 32.0 °F 54% 29.64 in 10.0 mi WSW 24.2 mph 31.1 mph N/A   Unknown
3:55 PM 46.4 °F 39.0 °F 32.0 °F 57% 29.65 in 10.0 mi WSW 19.6 mph 28.8 mph N/A   Unknown
4:15 PM 46.4 °F 39.0 °F 33.8 °F 62% 29.67 in 10.0 mi WSW 19.6 mph 31.1 mph N/A   Unknown
4:35 PM 46.4 °F 39.0 °F 32.0 °F 57% 29.67 in 10.0 mi WSW 19.6 mph - N/A   Unknown
4:55 PM 44.6 °F 37.4 °F 32.0 °F 61% 29.68 in 10.0 mi WSW 16.1 mph 23.0 mph N/A   Unknown
5:15 PM 46.4 °F 39.5 °F 32.0 °F 57% 29.69 in 10.0 mi West 17.3 mph - N/A   Unknown
5:35 PM 44.6 °F 39.2 °F 32.0 °F 61% 29.71 in 10.0 mi WNW 10.4 mph - N/A   Unknown
5:55 PM 41.0 °F 37.1 °F 30.2 °F 65% 29.72 in 10.0 mi WNW 5.8 mph - N/A   Unknown
6:15 PM 41.0 °F 34.3 °F 28.4 °F 61% 29.74 in 10.0 mi WNW 11.5 mph - N/A   Unknown
6:35 PM 41.0 °F 35.8 °F 28.4 °F 61% 29.75 in 10.0 mi WNW 8.1 mph - N/A   Unknown
6:55 PM 42.8 °F 36.6 °F 28.4 °F 57% 29.76 in 10.0 mi NW 11.5 mph - N/A   Unknown
7:15 PM 41.0 °F 35.8 °F 21.2 °F 45% 29.78 in 10.0 mi NW 8.1 mph 17.3 mph N/A   Unknown
7:35 PM 39.2 °F 31.2 °F 15.8 °F 39% 29.79 in 10.0 mi NW 13.8 mph 25.3 mph N/A   Unknown
7:55 PM 39.2 °F 30.2 °F 15.8 °F 39% 29.80 in 10.0 mi NW 17.3 mph 31.1 mph N/A   Unknown
8:15 PM 37.4 °F 29.8 °F 15.8 °F 41% 29.81 in 10.0 mi WNW 11.5 mph 17.3 mph N/A   Unknown
8:35 PM 35.6 °F 29.2 °F 15.8 °F 44% 29.82 in 10.0 mi NW 8.1 mph 17.3 mph N/A   Unknown
8:55 PM 35.6 °F 28.0 °F 15.8 °F 44% 29.85 in 10.0 mi NW 10.4 mph - N/A   Unknown
9:15 PM 33.8 °F 24.8 °F 15.8 °F 48% 29.85 in 10.0 mi NW 12.7 mph 20.7 mph N/A   Unknown
9:35 PM 33.8 °F 21.6 °F 14.0 °F 44% 29.86 in 10.0 mi WNW 23.0 mph 26.5 mph N/A   Unknown
9:55 PM 32.0 °F 20.8 °F 14.0 °F 48% 29.88 in 10.0 mi NW 17.3 mph 26.5 mph N/A   Unknown
10:15 PM 32.0 °F 21.2 °F 14.0 °F 48% 29.88 in 10.0 mi NW 16.1 mph 21.9 mph N/A   Unknown
10:35 PM 32.0 °F 21.2 °F 12.2 °F 44% 29.90 in 10.0 mi WNW 16.1 mph 24.2 mph N/A   Unknown
10:55 PM 32.0 °F 21.2 °F 10.4 °F 41% 29.90 in 10.0 mi NW 16.1 mph 26.5 mph N/A   Unknown
11:15 PM 30.2 °F 17.4 °F 10.4 °F 44% 29.91 in 10.0 mi NW 20.7 mph 28.8 mph N/A   Unknown
11:55 PM 28.4 °F 17.0 °F 8.6 °F 43% 29.92 in 10.0 mi NW 15.0 mph 26.5 mph N/A   Unknown